This is the latest recevied weather packets stored in our database for station/object HI3LT-13. If no packets are shown the sender has not sent any weather packets the latest 10 day(s).
| Time | Temp. | Humidity | Pressure | Rain* | Wind** | Luminosity | Snow |
|---|---|---|---|---|---|---|---|
| 1788272120 | 30° C | 82% | 1016 hPa | 0 mm | - | - | - |
| 1788271519 | 31.67° C | 90% | 1016 hPa | 0 mm | - | - | - |
| 1788270918 | 28.33° C | 74% | 1016 hPa | 0 mm | - | - | - |
| 1788270317 | 30° C | 86% | 1016 hPa | 0 mm | - | - | - |
| 1788269717 | 28.33° C | 85% | 1016 hPa | 0 mm | - | - | - |
| 1788269116 | 27.78° C | 83% | 1016 hPa | 0 mm | - | - | - |
| 1788268515 | 27.78° C | 86% | 1016 hPa | 0 mm | - | - | - |
| 1788267915 | 28.33° C | 94% | 1016 hPa | 0 mm | - | - | - |
| 1788267314 | 29.44° C | 94% | 1016 hPa | 0 mm | - | - | - |
| 1788266713 | 23.89° C | 94% | 1016 hPa | 0 mm | - | - | - |
| 1788266112 | 23.89° C | 94% | 1016 hPa | 0 mm | - | - | - |
| 1788265512 | 24.44° C | 97% | 1016 hPa | 0 mm | - | - | - |
| 1788264911 | 24.44° C | 97% | 1016 hPa | 0 mm | - | - | - |
| 1788264310 | 24.44° C | 97% | 1016 hPa | 0 mm | - | - | - |
| 1788263710 | 24.44° C | 97% | 1016 hPa | 0 mm | - | - | - |
| 1788263109 | 23.33° C | 96% | 1016 hPa | 0 mm | - | - | - |
| 1788262508 | 23.89° C | 96% | 1016 hPa | 0 mm | - | - | - |
| 1788261907 | 23.89° C | 97% | 1015 hPa | 0 mm | - | - | - |
| 1788261306 | 25° C | 97% | 1015 hPa | 0 mm | - | - | - |
| 1788260706 | 25° C | 98% | 1015 hPa | 0 mm | - | - | - |
| 1788260105 | 25° C | 98% | 1015 hPa | 0 mm | - | - | - |
| 1788259504 | 23.33° C | 98% | 1015 hPa | 0 mm | - | - | - |
| 1788258903 | 23.33° C | 97% | 1015 hPa | 0 mm | - | - | - |
| 1788258303 | 23.33° C | 97% | 1015 hPa | 0 mm | - | - | - |
| 1788257702 | 23.33° C | 97% | 1015 hPa | 0 mm | - | - | - |
* Rain latest hour (hover to see other rain measurements)
** Current wind speed in m/s (hover to see current wind gust speed)